User: anonymous   Login
Location: Seasalter
(51.3333°N, 1.0167°E)
Time: 09:45:54
(UTC+00:00)
Language:

Cosmos 1900 - Orbit

View from above orbital plane
View from above orbital plane
View from above satellite
View from above satellite

Ground track
Ground track

The orbit data is extracted from the following two-line orbital elements,

1 18665U 87101A   24056.84192110  .00000338  00000-0  10137-3 0  9995
2 18665  66.0831 219.2065 0045444 260.3317  99.2653 14.54946247925938
Epoch (UTC): 25 February 2024 20:12:21
Eccentricity: 0.0045444
inclination: 66.0831°
perigee height: 677 km
apogee height: 742 km
right ascension of ascending node: 219.2065°
argument of perigee: 260.3317°
revolutions per day: 14.54946247
mean anomaly at epoch: 99.2653°
orbit number at epoch: 92593

The dashed part of the orbit path shows where the satellite is in the earth's shadow,  

DLR